{"data":{"norad_id":64620,"epoch":"2026-09-20T04:53:55.916160Z","epoch_age_seconds":157158,"freshness":"FRESH","line1":"1 64620U 25137AC  26263.20411940  .00051567  00000+0  15231-2 0  9993","line2":"2 64620  53.1562 149.0574 0001285  85.2994 274.8155 15.34477362 70556","mean_motion":15.34477362,"eccentricity":0.0001285,"inclination_deg":53.1562,"raan_deg":149.0574,"arg_perigee_deg":85.2994,"mean_anomaly_deg":274.8155,"bstar":0.0015231,"rev_number":7055,"period_min":93.843026665649,"perigee_km":461.5942952749,"apogee_km":463.35233212553,"semimajor_km":6840.6103137002,"source":"CELESTRAK","updated_at":"2026-09-21T09:00:35.396536Z"}}